Date,TemperatureHighF,TemperatureAvgF,TemperatureLowF,DewpointHighF,DewpointAvgF,DewpointLowF,HumidityHigh,HumidityAvg,HumidityLow,PressureMaxIn,PressureMinIn,WindSpeedMaxMPH,WindSpeedAvgMPH,GustSpeedMaxMPH,PrecipitationSumIn
2013-1-1,34,28,14,27,19,5,81,68,56,30.07,29.79,8,4,14,0.00
2013-1-2,28,14,1,17,7,-3,87,73,58,30.23,29.97,6,2,14,0.00
2013-1-3,21,11,1,11,1,-6,80,65,41,30.19,30.07,4,2,8,0.00
2013-1-4,35,26,17,25,20,12,86,75,66,30.10,29.87,6,3,15,0.00
2013-1-5,38,30,18,25,21,14,84,70,51,30.41,29.91,6,2,12,0.00
2013-1-6,38,28,19,29,24,15,90,83,69,30.28,30.02,5,1,12,0.00
2013-1-7,34,25,12,27,18,8,92,77,51,30.53,30.04,5,1,9,0.00
2013-1-8,41,28,10,30,23,7,91,80,62,30.51,30.33,6,2,8,0.03
2013-1-9,43,32,18,34,27,15,90,81,59,30.45,30.12,7,2,17,0.00
2013-1-10,42,36,28,28,24,22,81,63,48,30.69,30.13,7,3,22,0.00
2013-1-11,37,31,21,34,26,18,93,83,67,30.61,30.29,1,0,3,0.14
2013-1-12,43,37,34,41,35,32,94,93,92,30.37,30.19,1,0,2,0.03
2013-1-13,48,43,37,46,41,36,95,94,92,30.28,30.07,3,1,12,0.00
2013-1-14,52,44,36,49,39,28,95,81,48,30.41,29.95,6,2,10,0.00
2013-1-15,40,33,28,28,26,24,88,75,59,30.43,30.29,2,0,4,0.00
2013-1-16,33,32,29,32,29,26,94,90,81,30.30,29.90,3,0,5,0.00
2013-1-17,39,32,27,35,27,15,94,81,57,30.25,29.90,5,2,14,0.03
2013-1-18,26,18,11,13,4,-1,77,54,37,30.56,30.11,6,2,11,0.00
2013-1-19,42,33,17,30,22,10,80,64,54,30.40,29.94,7,3,24,0.05
2013-1-20,48,37,25,31,24,10,78,61,35,30.06,29.63,8,4,17,0.03
2013-1-21,28,22,16,18,12,5,86,64,47,30.14,29.84,6,2,11,0.00
2013-1-22,22,16,8,18,6,-2,87,65,39,30.20,29.81,6,2,14,0.00
2013-1-23,12,7,2,1,-5,-8,73,56,42,30.25,30.10,6,3,17,0.00
2013-1-24,17,7,-1,-4,-7,-9,68,51,35,30.34,30.11,6,3,17,0.00
2013-1-25,21,13,4,10,-3,-8,77,48,33,30.35,30.10,4,2,11,0.00
2013-1-26,21,13,4,9,1,-5,83,62,37,30.37,30.04,5,2,12,0.00
2013-1-27,27,15,4,4,2,-2,78,57,33,30.59,30.32,6,2,13,0.00
2013-1-28,31,22,11,23,14,3,88,72,41,30.50,30.09,2,0,4,0.00
2013-1-29,35,30,25,32,27,22,93,90,83,30.34,30.09,2,0,2,0.00
2013-1-30,55,46,33,54,44,32,95,94,93,30.19,29.54,5,2,15,0.33
2013-1-31,58,44,28,56,36,15,95,76,48,29.73,29.08,10,6,23,0.52
2013-2-1,31,25,19,14,9,4,62,50,37,30.19,29.66,8,4,21,0.00
2013-2-2,30,21,14,14,7,3,70,55,41,30.32,30.10,5,2,11,0.00
2013-2-3,30,23,14,21,17,10,87,78,66,30.11,29.79,3,0,4,0.00
2013-2-4,27,20,15,15,11,8,84,67,47,30.05,29.78,6,3,14,0.00
2013-2-5,31,24,17,20,15,9,85,69,52,30.09,29.98,3,1,4,0.00
2013-2-6,36,27,20,25,17,5,90,68,44,30.42,29.97,5,2,11,0.00
2013-2-7,30,21,10,9,6,5,82,54,34,30.61,30.35,2,0,3,0.00
2013-2-8,29,23,17,24,16,8,89,77,52,30.52,29.72,7,3,16,0.00
2013-2-9,25,18,12,17,11,2,89,75,59,30.33,29.69,8,6,19,0.00
2013-2-10,34,18,8,13,5,-1,79,57,33,30.50,30.27,6,6,6,0.00
2013-2-11,42,32,9,40,27,-11,94,85,10,30.39,29.70,6,6,8,0.33
2013-2-12,40,40,40,-11,-11,-11,10,10,10,30.03,29.71,7,4,12,0.00
2013-2-13,40,40,40,-11,-11,-11,10,10,10,29.93,29.78,3,1,7,0.00
2013-2-14,40,40,40,-11,-11,-11,10,10,10,30.12,29.78,3,1,8,0.00
2013-2-15,40,40,40,-11,-11,-11,10,10,10,30.09,29.96,5,1,13,0.00
2013-2-16,42,38,28,23,-2,-11,73,25,10,30.24,29.81,4,1,9,0.03
2013-2-17,28,21,14,18,7,0,80,56,43,29.82,29.51,8,5,19,0.00
2013-2-18,27,18,10,4,1,-1,60,48,32,30.30,29.77,7,4,19,0.00
2013-2-19,46,33,18,38,24,4,93,69,50,30.22,29.67,4,1,7,0.13
2013-2-20,38,29,23,36,20,11,93,68,44,29.91,29.64,6,4,13,0.07
2013-2-21,30,25,21,16,13,10,74,62,49,30.30,29.83,7,4,18,0.00
2013-2-22,39,29,18,23,20,14,85,68,51,30.48,30.28,5,2,8,0.00
2013-2-23,36,33,29,31,28,22,91,81,75,30.38,29.98,3,1,7,0.00
2013-2-24,37,34,32,35,32,31,94,93,91,30.05,29.80,2,0,7,0.01
2013-2-25,40,33,27,37,31,25,94,93,89,30.37,29.96,2,0,4,0.00
2013-2-26,42,35,32,38,32,28,95,88,74,30.40,30.20,3,1,6,0.39
2013-2-27,40,36,33,38,34,30,94,93,86,30.20,29.67,6,3,10,1.99
2013-2-28,45,36,30,42,34,29,95,92,86,29.71,29.61,2,0,3,0.00
2013-3-1,44,36,31,33,30,26,95,78,61,29.84,29.61,4,2,7,0.00
2013-3-2,42,35,31,29,27,24,79,71,60,29.82,29.72,3,2,7,0.00
2013-3-3,41,33,30,30,26,23,85,76,62,29.78,29.65,4,2,7,0.00
2013-3-4,40,32,25,26,22,19,78,68,53,29.91,29.68,6,4,22,0.00
2013-3-5,46,35,27,30,26,21,82,69,52,30.23,29.83,4,2,13,0.00
2013-3-6,38,35,33,36,33,28,93,90,82,30.23,30.10,6,3,13,0.14
2013-3-7,36,33,29,34,30,27,93,91,88,30.21,30.07,4,3,9,0.00
2013-3-8,38,32,30,35,30,27,93,91,88,30.32,30.02,4,2,6,0.05
2013-3-9,45,32,18,37,26,15,93,80,53,30.47,30.23,4,2,5,0.00
2013-3-10,43,34,16,33,28,14,93,81,67,30.47,30.38,3,1,5,0.22
2013-3-11,52,40,31,38,34,28,91,79,56,30.37,30.22,4,2,14,0.14
2013-3-12,52,46,41,48,44,39,94,92,85,30.22,29.86,4,2,9,0.50
2013-3-13,45,37,28,40,30,21,95,77,40,29.95,29.80,5,2,10,0.00
2013-3-14,34,28,19,25,15,6,73,56,42,29.99,29.79,6,3,17,0.00
2013-3-15,39,27,15,27,16,8,87,63,38,29.92,29.73,6,3,12,0.00
2013-3-16,38,31,23,27,17,13,86,57,35,30.02,29.75,4,1,8,0.00
2013-3-17,34,27,18,18,11,5,82,55,30,30.43,29.94,6,2,12,0.00
2013-3-18,39,25,11,24,10,4,83,55,30,30.49,30.26,2,1,5,0.00
2013-3-19,36,32,28,34,29,24,93,91,86,30.20,29.73,5,2,11,0.00
2013-3-20,36,28,21,28,23,18,93,83,68,29.95,29.77,7,1,15,0.00
2013-3-21,40,28,15,31,20,12,90,76,56,29.88,29.67,3,1,7,0.03
2013-3-22,39,30,21,23,19,14,75,63,46,29.90,29.68,6,3,10,0.00
2013-3-23,41,33,23,23,20,17,82,61,42,29.95,29.74,8,4,17,0.00
2013-3-24,44,35,27,24,22,19,80,60,44,29.94,29.82,4,2,9,0.05
2013-3-25,44,35,25,31,27,22,86,73,58,29.85,29.49,5,2,10,0.00
2013-3-26,47,39,34,30,26,22,75,62,40,29.88,29.43,4,2,6,0.00
2013-3-27,51,42,28,29,25,21,74,53,35,30.04,29.84,4,2,10,0.00
2013-3-28,51,41,34,33,31,28,88,68,45,30.19,29.95,3,1,5,0.00
2013-3-29,55,43,32,34,30,28,88,64,39,30.22,30.10,4,2,8,0.00
2013-3-30,53,41,30,31,25,18,86,58,27,30.26,30.09,4,1,7,0.00
2013-3-31,57,40,24,38,28,21,89,67,32,30.19,29.80,5,1,10,0.06
2013-4-1,57,43,31,46,35,13,93,76,44,29.94,29.61,7,3,14,0.27
2013-4-2,38,32,25,20,15,12,70,51,36,30.08,29.86,8,4,17,0.00
2013-4-3,41,32,26,20,14,12,68,50,32,30.30,30.00,8,5,16,0.00
2013-4-4,52,38,24,24,18,12,70,46,26,30.36,30.11,5,2,9,0.00
2013-4-5,56,43,34,28,25,21,76,53,26,30.12,29.75,5,3,10,0.00
2013-4-6,45,34,26,26,12,4,68,43,21,30.47,29.97,6,3,13,0.00
2013-4-7,55,40,23,37,26,17,84,61,32,30.38,30.07,7,2,15,0.00
2013-4-8,64,49,39,40,38,35,92,67,34,30.25,30.04,4,1,7,0.00
2013-4-9,66,53,44,56,43,38,94,71,42,30.20,29.96,7,2,15,0.03
2013-4-10,65,53,46,54,48,42,93,82,59,30.09,29.95,2,1,6,0.30
2013-4-11,58,49,41,48,39,27,94,71,43,30.28,29.92,3,2,13,0.04
2013-4-12,37,36,35,35,34,32,94,93,90,30.19,29.86,5,3,12,0.41
2013-4-13,53,43,34,43,36,32,94,79,51,30.09,29.83,4,2,12,0.05
2013-4-14,52,42,31,38,31,25,93,68,41,30.36,30.00,6,2,9,0.00
2013-4-15,61,44,28,37,32,25,91,64,40,30.53,30.29,3,1,5,0.00
2013-4-16,67,51,31,51,41,28,87,72,46,30.50,30.15,6,3,16,0.00
2013-4-17,64,54,38,52,36,29,89,54,28,30.49,30.15,4,2,10,0.00
2013-4-18,65,50,31,44,34,28,91,59,34,30.50,30.21,4,2,11,0.00
2013-4-19,74,63,51,62,56,44,92,81,60,30.22,29.76,6,4,24,0.00
2013-4-20,65,51,38,61,39,23,93,68,34,30.36,29.73,6,3,13,0.39
2013-4-21,54,39,30,24,21,19,77,50,27,30.81,30.30,4,2,11,0.00
2013-4-22,55,40,28,32,28,24,89,65,36,30.81,30.65,6,2,10,0.00
2013-4-23,41,39,35,38,34,29,92,85,76,30.64,30.19,3,2,7,0.00
2013-4-24,75,54,40,48,43,38,93,69,32,30.19,29.92,5,2,8,0.00
2013-4-25,67,51,36,50,35,22,91,59,24,30.44,29.92,5,2,11,0.02
2013-4-26,64,46,30,39,33,27,91,63,37,30.59,30.37,4,1,7,0.00
2013-4-27,54,37,31,40,32,28,91,83,51,30.50,30.46,2,0,3,0.00
2013-4-29,69,59,44,47,38,26,81,46,33,30.43,30.28,4,2,8,0.00
2013-4-30,73,56,43,38,31,23,77,42,21,30.52,30.34,3,1,8,0.00
2013-5-1,74,53,33,39,33,29,87,53,27,30.68,30.44,2,1,4,0.00
2013-5-2,81,58,41,46,39,35,86,55,26,30.69,30.43,6,2,10,0.00
2013-5-3,66,50,36,46,39,32,87,68,46,30.60,30.47,4,2,8,0.00
2013-5-4,68,50,36,46,36,27,93,63,22,30.50,30.37,4,2,9,0.00
2013-5-5,68,47,30,41,35,27,91,66,36,30.44,30.34,3,1,7,0.00
2013-5-6,77,54,33,48,40,30,91,65,29,30.36,30.23,3,1,5,0.00
2013-5-7,82,61,43,56,49,40,93,67,39,30.36,30.20,3,2,5,0.00
2013-5-8,72,61,48,64,56,45,94,87,68,30.33,30.15,3,1,8,0.67
2013-5-9,68,60,54,63,57,2,95,92,10,30.16,30.00,2,0,4,0.00
2013-5-10,79,63,50,62,55,49,95,77,43,30.13,30.01,3,1,6,0.00
2013-5-11,68,63,59,62,58,54,94,86,74,30.03,29.84,4,2,9,0.00
2013-5-12,68,59,46,59,50,32,95,74,46,30.00,29.75,6,1,10,0.03
2013-5-13,61,48,40,35,30,27,74,52,33,30.23,29.94,5,3,16,0.00
2013-5-14,59,48,38,35,31,29,84,54,34,30.18,30.11,4,2,7,0.00
2013-5-15,67,48,32,51,40,29,92,76,38,30.18,29.82,4,2,15,0.03
2013-5-16,81,64,48,50,42,34,91,50,24,30.02,29.79,6,3,17,0.00
2013-5-17,72,56,44,43,40,37,85,59,31,30.42,29.96,4,1,12,0.00
2013-5-18,73,57,39,52,42,36,92,62,32,30.49,30.34,4,1,9,0.00
2013-5-19,71,58,48,55,50,44,93,78,50,30.53,30.40,4,1,7,0.06
2013-5-20,80,65,55,72,61,53,94,88,64,30.42,30.11,5,1,11,0.02
2013-5-21,87,66,51,68,59,49,94,82,49,30.21,30.06,4,1,7,0.25
2013-5-22,80,62,50,69,58,48,95,86,70,30.21,30.02,3,1,5,0.50
2013-5-23,76,64,56,70,62,53,94,91,79,30.10,29.94,3,1,8,0.75
2013-5-24,70,62,47,67,58,45,95,89,74,30.05,29.80,3,1,10,1.41
2013-5-25,52,46,39,50,44,38,95,92,88,29.98,29.87,4,2,10,0.40
2013-5-26,60,48,38,44,40,36,94,76,52,30.30,29.85,5,3,13,0.00
2013-5-27,83,55,38,45,40,35,92,63,26,30.38,30.22,4,2,12,0.00
2013-5-28,76,58,39,52,44,37,93,65,33,30.40,30.30,2,1,9,0.00
2013-5-29,74,63,57,69,60,53,94,89,79,30.32,30.18,4,0,5,0.74
2013-5-30,89,72,60,72,66,58,95,82,52,30.32,30.20,4,1,12,0.00
2013-5-31,94,76,60,71,64,58,95,72,42,30.27,30.18,4,1,7,0.00
2013-6-1,94,78,67,70,65,61,80,66,45,30.18,30.09,4,2,10,0.00
2013-6-2,87,76,66,69,66,64,94,73,46,30.16,29.94,5,2,12,0.03
2013-6-3,82,68,57,70,62,44,94,83,56,30.09,29.97,3,1,5,0.47
2013-6-4,76,59,45,51,45,40,88,63,37,30.31,30.00,4,2,12,0.00
2013-6-5,73,60,44,54,48,41,93,69,42,30.38,30.25,2,1,6,0.00
2013-6-6,74,63,50,54,51,46,87,67,43,30.35,30.25,3,1,8,0.05
2013-6-7,57,55,52,55,53,50,95,91,86,30.25,29.97,3,1,8,2.22
2013-6-8,77,62,51,65,57,50,95,85,65,30.23,29.78,4,2,9,1.02
2013-6-9,80,65,53,59,56,51,94,74,46,30.41,30.16,3,1,12,0.00
2013-6-10,70,61,52,62,57,50,94,87,69,30.42,30.15,2,1,7,1.00
2013-6-11,63,58,55,61,56,54,95,94,91,30.14,29.73,3,1,6,1.25
2013-6-12,70,62,56,59,55,51,95,79,57,30.06,29.72,4,2,10,0.00
2013-6-13,62,55,48,59,52,46,95,91,83,30.04,29.81,3,1,6,1.42
2013-6-14,75,59,50,62,54,49,95,86,56,30.02,29.78,2,1,8,0.79
2013-6-15,80,64,52,53,50,48,88,63,36,30.18,29.94,4,1,8,0.00
2013-6-16,76,64,48,61,54,45,91,72,55,30.11,29.96,3,1,6,0.00
2013-6-17,82,67,56,67,60,53,94,79,51,30.16,29.97,4,1,8,0.36
2013-6-18,75,62,57,69,60,55,95,92,74,30.18,30.05,3,0,3,0.28
2013-6-19,79,62,52,61,54,47,95,78,37,30.37,30.06,2,0,4,0.08
2013-6-20,82,63,46,57,52,44,93,71,39,30.48,30.31,3,1,6,0.00
2013-6-21,84,69,58,66,59,52,85,72,52,30.49,30.37,3,1,13,0.00
2013-6-22,86,72,59,64,60,56,89,69,45,30.41,30.32,4,1,8,0.00
2013-6-23,94,76,66,73,65,57,82,69,50,30.41,30.21,4,2,10,0.00
2013-6-24,94,78,68,75,69,66,94,78,52,30.25,30.11,5,2,11,0.28
2013-6-25,90,76,66,72,68,64,95,79,55,30.21,29.96,3,1,9,0.00
2013-6-26,82,75,68,73,68,65,90,81,67,30.11,29.93,3,1,8,0.00
2013-6-27,75,69,64,70,66,62,93,90,82,30.11,29.95,2,1,4,0.03
2013-6-28,77,69,60,75,67,58,95,92,85,29.99,29.68,3,1,6,0.58
2013-6-29,85,74,67,70,68,65,94,82,60,29.98,29.69,4,1,8,0.00
2013-6-30,86,76,68,73,69,65,93,80,63,30.18,29.91,3,1,8,0.00
2013-7-1,82,74,71,74,71,68,94,90,75,30.33,30.12,2,0,5,0.67
2013-7-2,72,71,70,70,70,69,95,95,95,30.28,30.25,1,1,6,0.00
2013-7-4,100,82,77,76,73,72,86,74,47,30.42,30.32,3,1,7,0.00
2013-7-5,100,81,73,77,73,70,90,76,46,30.37,30.27,3,2,7,0.00
2013-7-6,98,81,71,74,72,68,89,76,46,30.32,30.22,4,1,6,0.00
2013-7-7,88,76,68,75,70,65,92,83,63,30.25,30.13,3,0,7,0.00
2013-7-8,88,76,70,74,70,66,94,82,57,30.31,30.10,3,1,7,0.00
2013-7-9,77,71,67,70,67,64,92,87,79,30.36,30.23,1,0,4,0.00
2013-7-10,83,74,67,76,70,64,93,88,76,30.32,30.00,2,1,9,0.03
2013-7-11,84,74,68,75,70,65,93,86,68,30.20,29.98,2,1,5,0.02
2013-7-12,78,71,65,66,62,58,91,73,58,30.37,30.13,3,1,6,0.00
2013-7-13,74,69,64,71,65,59,94,88,80,30.56,30.37,1,0,3,0.25
2013-7-14,93,77,70,75,72,68,95,84,54,30.50,30.43,2,0,7,0.00
2013-7-15,98,78,68,76,70,66,94,79,46,30.49,30.39,2,0,7,0.00
2013-7-16,89,78,67,75,69,64,92,77,54,30.45,30.33,2,0,4,0.00
2013-7-17,92,79,68,76,71,65,94,77,57,30.38,30.24,2,1,7,0.00
2013-7-18,93,82,74,76,73,70,89,75,54,30.27,30.18,3,1,7,0.00
2013-7-19,94,83,73,77,74,70,92,75,54,30.17,30.03,4,2,8,0.00
2013-7-20,89,81,68,76,73,62,87,76,59,30.08,29.90,4,1,10,0.00
2013-7-21,83,73,64,70,66,60,89,78,54,30.26,30.04,2,0,3,0.00
2013-7-22,83,72,63,71,66,61,93,82,65,30.26,30.13,2,1,4,0.00
2013-7-23,80,72,68,76,69,66,95,93,87,30.14,29.75,3,0,8,1.60
2013-7-24,81,74,66,72,67,57,95,80,57,30.19,29.78,4,1,6,0.00
2013-7-25,66,61,59,58,55,50,93,81,70,30.34,30.15,2,0,7,0.08
2013-7-26,71,64,60,68,61,58,95,90,79,30.26,30.13,2,1,5,0.56
2013-7-27,80,68,58,69,62,57,95,82,58,30.29,30.18,2,1,6,0.00
2013-7-28,82,71,60,72,66,58,93,83,62,30.27,30.15,1,0,3,0.00
2013-7-29,83,73,64,70,66,60,93,80,60,30.31,30.16,2,1,6,0.00
2013-7-30,81,69,60,62,59,55,88,72,51,30.37,30.23,2,1,6,0.00
2013-7-31,81,68,58,64,60,55,91,76,53,30.32,30.23,1,0,5,0.00
2013-8-1,77,66,58,66,61,56,94,87,67,30.24,30.03,3,0,5,0.14
2013-8-2,81,70,64,69,64,61,95,83,53,30.15,29.95,3,1,8,0.27
2013-8-3,77,68,61,65,62,58,92,81,63,30.11,29.98,3,1,9,0.00
2013-8-4,76,65,56,60,57,53,92,76,53,30.15,29.97,4,1,8,0.00
2013-8-5,75,62,52,53,50,46,88,69,42,30.29,30.07,3,1,7,0.00
2013-8-6,77,62,48,58,53,45,94,75,49,30.39,30.22,1,0,4,0.00
2013-8-7,78,66,55,61,57,53,93,73,49,30.38,30.29,3,1,7,0.00
2013-8-8,79,71,65,71,67,59,93,85,76,30.31,30.21,2,1,6,0.03
2013-8-9,75,72,70,73,70,67,95,92,87,30.22,30.02,2,1,7,1.19
2013-8-10,81,70,63,69,61,51,95,74,45,30.27,30.00,4,2,9,0.00
2013-8-11,78,63,52,60,55,49,92,76,53,30.30,30.20,3,1,7,0.00
2013-8-12,80,66,56,63,58,54,93,77,53,30.22,30.11,2,1,7,0.00
2013-8-13,75,67,62,68,64,60,92,88,75,30.11,29.87,2,0,4,0.03
2013-8-14,75,64,55,64,54,50,92,72,52,30.21,29.86,4,2,11,0.00
2013-8-15,74,61,51,56,52,48,92,76,52,30.37,30.15,4,1,10,0.00
2013-8-16,76,63,51,60,55,49,93,77,53,30.44,30.27,3,1,8,0.00
2013-8-17,77,65,53,64,58,51,94,80,56,30.53,30.37,2,0,3,0.00
2013-8-18,76,66,56,66,61,54,93,83,60,30.52,30.35,1,0,2,0.00
2013-8-19,78,68,59,65,61,57,92,78,62,30.35,30.16,3,1,8,0.00
2013-8-20,82,70,60,66,62,58,92,77,56,30.39,30.19,3,1,5,0.00
2013-8-21,83,70,60,68,63,58,92,79,57,30.34,30.23,3,1,5,0.00
2013-8-22,82,73,63,72,66,60,92,81,68,30.24,30.05,3,1,5,0.00
2013-8-23,77,70,58,68,60,52,89,73,51,30.37,30.03,2,1,4,0.00
2013-8-24,74,61,50,55,51,46,91,72,47,30.58,30.31,2,0,4,0.00
2013-8-25,78,64,51,59,54,48,94,73,45,30.55,30.44,3,1,8,0.00
2013-8-26,78,70,64,67,62,56,91,76,64,30.44,30.12,4,2,11,0.03
2013-8-27,82,72,68,74,68,66,95,88,67,30.17,30.02,2,0,6,0.10
2013-8-28,78,69,63,70,66,60,93,89,73,30.21,30.05,1,0,2,0.03
2013-8-29,68,65,61,65,62,59,94,91,89,30.32,30.13,2,1,4,0.07
2013-8-30,80,68,58,69,64,56,94,85,68,30.28,30.10,3,1,7,0.00
2013-8-31,80,74,70,73,70,66,91,86,79,30.10,29.98,2,1,6,0.00
2013-9-1,76,72,68,75,70,66,95,94,91,30.14,29.99,3,0,7,1.21
2013-9-2,77,72,69,75,71,67,95,95,93,30.06,29.98,2,0,5,0.25
2013-9-3,77,69,62,71,66,56,96,88,75,30.08,29.90,3,1,6,0.00
2013-9-4,76,65,56,60,57,53,94,77,56,30.18,30.00,4,1,12,0.00
2013-9-5,70,62,48,61,53,45,93,76,45,30.38,30.04,2,1,6,0.00
2013-9-6,65,53,42,49,44,39,94,75,48,30.47,30.30,3,0,5,0.00
2013-9-7,73,62,50,59,52,44,88,71,50,30.32,30.11,3,1,9,0.00
2013-9-8,71,62,47,62,52,42,88,72,46,30.32,29.93,4,1,11,0.00
2013-9-9,66,54,40,50,45,38,93,75,52,30.39,30.25,2,1,5,0.00
2013-9-10,74,66,56,70,62,51,94,90,83,30.33,30.21,3,1,11,0.05
2013-9-11,88,77,67,76,72,65,95,83,61,30.33,30.18,4,1,6,0.00
2013-9-12,84,75,67,75,69,65,94,84,68,30.18,29.88,4,1,9,1.25
2013-9-13,74,66,58,69,64,54,95,92,75,30.03,29.78,3,1,6,0.08
2013-9-14,65,58,52,54,52,49,89,80,66,30.30,29.95,4,1,8,0.00
2013-9-15,66,56,45,54,49,42,94,80,54,30.33,30.21,3,0,6,0.00
2013-9-16,65,57,45,56,50,39,89,80,66,30.48,30.17,2,1,6,0.00
2013-9-17,59,48,36,47,40,34,93,77,55,30.57,30.41,2,0,7,0.00
2013-9-18,67,53,41,51,45,38,94,77,43,30.47,30.30,3,1,7,0.00
2013-9-19,72,59,50,57,51,46,91,76,51,30.32,30.05,2,1,7,0.00
2013-9-20,74,61,50,60,53,47,94,78,51,30.31,30.16,2,0,3,0.00
2013-9-21,72,66,52,64,60,50,94,82,72,30.21,29.96,3,2,10,0.00
2013-9-22,68,60,49,65,55,44,95,83,66,30.06,29.78,4,2,10,0.50
2013-9-23,59,50,42,45,42,39,90,75,58,30.23,29.99,3,1,12,0.00
2013-9-24,63,50,39,46,42,36,93,75,48,30.15,29.98,4,1,9,0.00
2013-9-25,67,54,44,57,48,41,93,80,63,30.21,30.02,2,0,6,0.00
2013-9-26,63,57,51,52,49,48,91,77,61,30.35,30.16,2,0,3,0.00
2013-9-27,65,57,48,55,51,45,92,82,66,30.49,30.28,2,0,4,0.00
2013-9-28,69,55,43,58,50,41,95,84,59,30.70,30.38,2,0,4,0.00
2013-9-29,63,51,42,55,46,40,94,84,58,30.41,30.26,1,0,5,0.00
2013-9-30,65,50,38,53,45,36,95,84,63,30.26,30.12,2,0,4,0.00
2013-10-1,46,46,46,44,44,43,93,93,91,30.11,30.08,0,0,0,0.00
2013-10-2,65,64,62,57,56,55,80,76,74,30.20,30.13,2,1,5,0.00
2013-10-3,70,60,51,55,52,48,92,76,46,30.32,30.14,2,0,4,0.00
2013-10-4,63,57,50,60,54,48,94,91,83,30.31,30.20,1,0,2,0.19
2013-10-5,68,62,57,61,58,55,94,88,76,30.35,30.21,1,0,2,0.03
2013-10-6,60,56,53,57,54,51,95,94,91,30.41,30.09,3,1,5,0.74
2013-10-7,72,61,55,70,60,53,96,94,87,30.20,29.98,5,2,15,0.25
2013-10-8,62,52,41,54,46,39,95,80,51,30.58,30.16,4,1,7,0.00
2013-10-9,59,47,37,48,42,35,94,84,64,30.61,30.50,3,1,5,0.00
2013-10-10,59,49,38,52,45,36,94,88,77,30.49,30.32,2,0,5,0.00
2013-10-11,66,53,43,56,48,41,94,82,49,30.39,30.25,2,0,5,0.00
2013-10-12,56,50,42,54,48,40,95,92,90,30.61,30.30,3,1,5,0.00
2013-10-13,57,51,44,50,47,41,94,87,77,30.63,30.49,2,1,7,0.00
2013-10-14,61,48,35,48,41,33,95,80,44,30.53,30.38,2,0,5,0.00
2013-10-15,53,52,50,50,49,46,91,88,85,30.40,30.37,1,0,2,0.00
2013-10-16,59,54,49,52,50,46,93,86,72,30.28,30.07,2,0,2,0.00
2013-10-17,69,59,48,59,54,45,95,85,62,30.06,29.88,3,1,9,0.00
2013-10-18,64,57,44,60,50,40,94,78,54,30.13,29.77,5,2,13,0.04
2013-10-19,64,51,37,46,42,35,94,74,48,30.11,29.89,3,1,7,0.00
2013-10-20,57,50,37,50,40,33,90,70,42,30.24,29.86,5,2,14,0.00
2013-10-21,62,48,36,43,39,33,91,74,45,30.25,30.13,4,1,10,0.00
2013-10-22,64,50,38,52,43,35,94,78,60,30.12,29.86,4,1,7,0.00
2013-10-23,50,42,32,41,34,30,93,75,55,29.94,29.73,2,0,5,0.00
2013-10-24,50,41,33,35,30,25,88,66,40,30.09,29.78,6,2,13,0.00
2013-10-25,49,38,30,35,29,26,91,71,47,30.35,30.03,5,1,9,0.00
2013-10-26,51,40,29,35,30,26,92,70,41,30.27,30.00,5,2,15,0.00
2013-10-27,52,44,32,38,33,28,85,67,48,30.27,29.93,5,2,11,0.00
2013-10-28,41,32,30,32,28,26,90,84,69,30.55,30.19,0,0,1,0.00
2013-10-29,45,32,25,28,22,19,91,70,36,30.65,30.47,3,0,7,0.00
2013-10-30,52,38,28,41,32,23,90,81,65,30.48,30.32,3,0,7,0.00
2013-10-31,58,47,31,56,44,28,94,92,84,30.36,29.94,4,1,9,0.27
2013-11-1,65,60,54,62,57,50,95,89,78,29.91,29.63,6,4,17,0.11
2013-11-2,61,49,38,50,43,36,94,80,53,29.95,29.75,3,0,5,0.03
2013-11-3,45,39,28,43,28,17,93,66,40,30.61,29.88,3,2,9,0.03
2013-11-4,38,29,21,20,18,17,86,66,43,30.89,30.60,3,1,4,0.00
2013-11-5,47,34,22,35,28,19,90,78,54,30.81,30.62,3,0,4,0.00
2013-11-6,57,48,36,46,41,33,90,79,62,30.61,30.17,4,2,12,0.00
2013-11-7,63,51,36,56,48,34,93,89,77,30.17,29.85,5,3,13,0.11
2013-11-8,44,37,27,36,28,22,92,72,52,30.42,30.01,6,2,15,0.00
2013-11-9,41,30,25,26,24,21,88,78,53,30.33,30.21,3,1,6,0.00
2013-11-10,48,44,41,40,39,38,91,84,70,29.98,29.93,3,2,6,0.00
2013-11-11,42,38,34,28,27,26,73,66,59,30.23,30.15,4,3,10,0.00
2013-11-12,36,30,24,34,24,16,91,77,66,30.37,30.07,4,2,10,0.03
2013-11-13,32,26,20,18,15,12,81,66,44,30.43,30.25,4,2,12,0.00
2013-11-14,47,35,28,26,22,18,76,59,42,30.32,30.16,5,2,10,0.00
2013-11-15,58,41,28,29,23,20,73,50,22,30.38,30.22,4,1,7,0.00
2013-11-16,55,43,30,34,29,26,87,60,38,30.52,30.31,2,1,5,0.00
2013-11-17,53,42,30,46,38,26,92,86,73,30.44,29.98,2,0,2,0.03
2013-11-18,60,53,43,58,45,32,95,77,55,29.96,29.68,7,2,13,0.17
2013-11-19,43,36,28,32,22,16,65,57,48,30.45,29.81,6,4,17,0.00
2013-11-20,39,28,19,17,15,12,83,59,33,30.81,30.40,5,2,9,0.00
2013-11-21,43,30,17,33,22,14,90,74,50,30.80,30.48,3,1,9,0.00
2013-11-22,48,43,39,46,40,33,93,89,77,30.46,29.94,3,0,7,0.11
2013-11-23,47,37,26,45,26,18,92,67,45,30.06,29.92,6,4,13,0.00
2013-11-24,26,20,16,19,6,0,78,55,34,30.35,29.92,8,5,17,0.00
2013-11-25,30,22,13,17,6,0,62,52,34,30.51,30.30,5,2,15,0.00
2013-11-26,38,33,28,31,23,14,92,69,52,30.44,30.15,3,1,8,0.17
2013-11-27,60,44,33,59,43,31,95,94,92,30.14,29.39,5,2,13,2.05
2013-11-28,34,27,20,32,17,10,93,68,45,30.59,29.62,7,4,18,0.00
2013-11-29,30,23,12,17,13,8,85,66,49,30.89,30.52,5,1,10,0.00
2013-11-30,30,20,8,22,13,5,87,75,59,30.87,30.52,2,0,6,0.00
2013-12-1,36,33,28,34,29,22,93,87,77,30.50,30.20,0,0,1,0.11
2013-12-2,40,36,32,38,34,30,93,92,91,30.20,30.02,0,0,1,0.03
2013-12-3,46,35,28,39,31,25,95,87,67,30.14,29.97,3,1,9,0.00
2013-12-4,42,32,25,31,27,23,93,83,60,30.38,30.08,3,1,6,0.00
2013-12-5,53,38,29,52,36,27,95,91,86,30.38,30.12,3,0,9,0.03
2013-12-6,53,53,53,52,52,52,94,94,94,30.11,30.01,4,3,15,0.00
2013-12-7,36,30,24,33,28,22,94,91,85,30.59,30.40,3,1,8,0.06
2013-12-8,30,25,17,23,20,14,92,82,66,30.72,30.54,2,0,4,0.00
2013-12-9,34,30,25,33,28,20,95,90,77,30.57,30.08,4,1,8,0.00
2013-12-10,34,29,20,32,27,17,95,92,86,30.16,29.89,4,2,7,0.00
2013-12-11,28,22,17,21,18,14,91,83,72,30.32,30.09,6,2,12,0.00
2013-12-12,21,16,9,17,9,4,89,75,51,30.36,30.16,5,1,10,0.00
2013-12-13,27,18,12,19,12,7,86,76,64,30.52,30.07,6,2,10,0.00
2013-12-14,18,13,11,12,6,1,86,73,49,30.66,30.32,3,1,7,0.00
2013-12-15,29,23,16,24,19,12,90,86,80,30.29,29.56,4,2,8,0.00
2013-12-16,25,19,6,20,11,1,89,72,53,30.36,29.82,6,2,16,0.00
2013-12-17,20,8,-6,16,4,-9,88,83,77,30.39,30.07,2,0,4,0.00
2013-12-18,30,23,17,22,18,14,89,82,71,30.25,29.97,5,2,11,0.00
2013-12-19,36,29,14,27,23,11,90,78,65,30.29,30.06,6,2,16,0.00
2013-12-20,48,39,29,40,32,25,88,77,65,30.21,30.02,3,1,12,0.17
2013-12-21,56,46,35,47,40,31,91,78,68,30.11,29.97,3,2,8,0.00
2013-12-22,62,48,35,59,45,33,94,90,71,30.20,29.91,5,2,12,0.01
2013-12-23,40,35,32,38,33,31,95,94,92,30.28,30.08,2,1,9,0.50
2013-12-24,36,30,23,34,23,12,94,76,55,30.38,30.18,4,2,9,0.00
2013-12-25,22,17,12,11,6,3,81,64,51,30.69,30.31,5,2,10,0.00
2013-12-26,25,20,14,18,13,9,82,77,73,30.63,30.41,0,0,2,0.00
2013-12-27,32,26,15,24,20,13,91,78,64,30.42,30.29,5,1,7,0.00
2013-12-28,42,32,24,28,25,20,86,76,58,30.31,30.10,5,2,15,0.02
2013-12-29,43,36,31,35,32,26,94,85,65,30.13,29.65,3,1,9,1.28
2013-12-30,38,29,15,36,23,8,95,77,52,30.32,29.67,6,2,14,0.00
2013-12-31,23,17,11,15,10,7,85,74,58,30.33,30.09,4,1,8,0.00
2014-1-1,26,19,12,14,9,6,82,67,51,30.54,30.26,6,2,11,0.00
2014-1-2,20,12,2,15,8,-2,84,82,78,30.42,29.94,6,3,16,0.00